Dalhart, TX

4:36 AM CST on February 22, 2017 (GMT -0600)
Dalhart Municipal

Weather History for KDHT - October, 2012

Change the Weather History Date:

Thursday, October 4, 2012

  Actual Average Record
Temperature  
Mean Temperature 56 °F 60 °F  
Max Temperature 67 °F 75 °F 94 °F (1954)
Min Temperature 44 °F 45 °F 35 °F (2002)
Degree Days  
Heating Degree Days 9 6  
Month to date heating degree days 17 22  
Since 1 July heating degree days 43 85  
Cooling Degree Days 0 1  
Month to date cooling degree days 1 4  
Year to date cooling degree days 1643 1132  
Growing Degree Days 4 (Base 50)    
Moisture  
Dew Point 34 °F    
Average Humidity 52    
Maximum Humidity 70    
Minimum Humidity 33    
Precipitation  
Precipitation 0.00 in 0.04 in 0.79 in (1984)
Month to date precipitation 0.00 0.19  
Year to date precipitation 6.33 15.19  
Snow  
Snow 0.00 in 0.00 in 0.00 in ()
Month to date snowfall 0.0 0.0  
Since 1 July snowfall 0.0 0.0  
Since 1 September snowfall 0.0 0.0  
Snow Depth 0.00 in    
Sea Level Pressure  
Sea Level Pressure 30.14 in    
Wind  
Wind Speed 18 mph (NE)    
Max Wind Speed 47 mph    
Max Gust Speed 56 mph    
Visibility 9 miles    
Events      
T = Trace of Precipitation, MM = Missing Value Source: NWS Daily Summary

Daily Weather History Graph

Daily Weather History Graph

Search for Another Location

Airport or City:

Trip Planner

Search our weather history database for the weather conditions in past years. The results will help you decide how hot, cold, wet, or windy it might be!

Date:

Astronomy

Oct. 04, 2012 Rise Set
Actual Time 7:48 AM CDT 7:28 PM CDT
Civil Twilight 7:22 AM CDT 7:54 PM CDT
Nautical Twilight 6:52 AM CDT 8:23 PM CDT
Astronomical Twilight 6:23 AM CDT 8:53 PM CDT
Moon 10:14 PM CDT (10/4) 11:58 AM CDT (10/4)
Length of Visible Light 12h 31m
Length of Day
11h 40m
Waning Gibbous, 82% of the Moon is Illuminated
Oct 4
Waning Gibbous
Oct 8
Last Quarter
Oct 15
New
Oct 21
First Quarter
Oct 29
Full

Hourly Weather History & Observations

Time (CDT) Temp. Windchill Dew Point Humidity Pressure Visibility Wind Dir Wind Speed Gust Speed Precip Events Conditions
12:53 AM 61.0 °F - 48.9 °F 64% 29.80 in 10.0 mi South 10.4 mph - N/A   Clear
1:49 AM 62.6 °F - 39.2 °F 42% 30.06 in 4.0 mi North 33.4 mph 42.6 mph N/A   Haze
1:53 AM 60.1 °F - 37.9 °F 44% 29.91 in 3.0 mi North 38.0 mph 55.2 mph N/A   Haze
1:56 AM 60.8 °F - 37.4 °F 42% 30.07 in 2.5 mi North 35.7 mph 55.2 mph N/A   Haze
2:07 AM 57.2 °F - 37.4 °F 48% 30.08 in 4.0 mi North 42.6 mph 54.1 mph N/A   Haze
2:53 AM 55.0 °F - 36.0 °F 49% 29.99 in 5.0 mi North 42.6 mph 54.1 mph N/A   Haze
3:53 AM 52.0 °F - 35.1 °F 53% 30.03 in 7.0 mi North 34.5 mph 48.3 mph N/A   Overcast
4:26 AM 50.0 °F - 33.8 °F 54% 30.19 in 9.0 mi North 34.5 mph 42.6 mph N/A   Scattered Clouds
4:53 AM 48.9 °F - 34.0 °F 56% 30.06 in 10.0 mi North 31.1 mph 42.6 mph N/A   Clear
5:53 AM 46.9 °F - 33.1 °F 59% 30.10 in 10.0 mi North 35.7 mph 44.9 mph N/A   Clear
6:53 AM 46.9 °F - 32.0 °F 56% 30.16 in 10.0 mi North 26.5 mph 31.1 mph N/A   Mostly Cloudy
7:53 AM 46.0 °F 38.3 °F 30.9 °F 56% 30.22 in 10.0 mi North 20.7 mph 33.4 mph N/A   Overcast
8:53 AM 45.0 °F 36.4 °F 28.9 °F 53% 30.25 in 10.0 mi North 23.0 mph - N/A   Overcast
9:53 AM 46.0 °F 37.6 °F 28.9 °F 51% 30.26 in 10.0 mi North 24.2 mph 36.8 mph N/A   Overcast
10:53 AM 50.0 °F - 28.0 °F 43% 30.26 in 10.0 mi NNE 21.9 mph 31.1 mph N/A   Clear
11:53 AM 53.1 °F - 28.9 °F 40% 30.25 in 10.0 mi NNE 19.6 mph 28.8 mph N/A   Clear
12:53 PM 55.9 °F - 28.9 °F 36% 30.23 in 10.0 mi NNE 15.0 mph 27.6 mph N/A   Clear
1:53 PM 57.9 °F - 30.0 °F 35% 30.19 in 10.0 mi NNE 17.3 mph 24.2 mph N/A   Clear
2:53 PM 59.0 °F - 30.9 °F 35% 30.18 in 10.0 mi ENE 11.5 mph 16.1 mph N/A   Clear
3:53 PM 59.0 °F - 32.0 °F 36% 30.16 in 10.0 mi East 6.9 mph - N/A   Clear
4:53 PM 59.0 °F - 33.1 °F 38% 30.17 in 10.0 mi East 5.8 mph - N/A   Clear
5:53 PM 59.0 °F - 33.1 °F 38% 30.17 in 10.0 mi ESE 8.1 mph - N/A   Clear
6:53 PM 57.9 °F - 34.0 °F 41% 30.15 in 10.0 mi East 8.1 mph - N/A   Clear
7:53 PM 53.1 °F - 34.0 °F 48% 30.16 in 10.0 mi East 6.9 mph - N/A   Clear
8:53 PM 50.0 °F - 34.0 °F 54% 30.18 in 10.0 mi East 6.9 mph - N/A   Clear
9:53 PM 48.0 °F - 35.1 °F 61% 30.21 in 10.0 mi ENE 5.8 mph - N/A   Clear
10:53 PM 46.0 °F 43.1 °F 36.0 °F 68% 30.21 in 10.0 mi East 5.8 mph - N/A   Clear
11:53 PM 45.0 °F 41.8 °F 35.1 °F 68% 30.21 in 10.0 mi ENE 5.8 mph - N/A   Clear